OpenBCM V1.07b12 (Linux)

Packet Radio Mailbox

DB0FHN

[JN59NK Nuernberg]

 Login: GUEST





  
F1EBE  > KEPLER   10.02.03 20:44l 121 Lines 6321 Bytes #999 (0) @ EU
BID : 21171_F8KOH
Read: DB0FHN GUEST
Subj: 2l  Sat Meteo 040.jours
Path: DB0FHN<DB0ZWI<DB0HST<F6GGY<F5ZMJ<F5KBW<F1HCI<F6KBF<F5GVH<F8KGK<F8KAE<
      F8KOH
Sent: 030210/0958Z @:F8KOH.FNOR.FRA.EU #:21171 [Vernon] FBB7.00i $:21171_F8KOH
From: F1EBE@F8KOH.FNOR.FRA.EU
To  : KEPLER@EU



GOES 2                  
1 10061U 77048A   03028.56527598  .00000000  00000-0  10000-3 0   708
2 10061  14.1264  13.5931 0013180 196.1337 163.8523  0.99391768 38622
GOES 6                  
1 14050U 83041A   03039.07860476  .00000049  00000-0  10000-3 0  4205
2 14050  10.3847  35.5672 0004420 350.2264   9.8380  1.00299821130537
GOES 7                  
1 17561U 87022A   03039.31434324  .00000057  00000-0  10000-3 0  8443
2 17561   7.5828  55.6050 0005340 259.6270 117.9254  1.00250703 41648
INSAT 1D                
1 20643U 90051A   03037.64265630 -.00000055  00000-0  10000-3 0  8854
2 20643   4.1714  80.9806 0014076 324.1247  33.9140  1.00284275 33191
FENGYUN 1B              
1 20788U 90081A   03039.90027094 -.00000192  00000-0 -96693-4 0  8775
2 20788  99.0264  22.1768 0014978 257.4517 102.4973 14.02134342636187
METEOSAT 5 (MOP 2)      
1 21140U 91015B   03038.79716422  .00000026  00000-0  10000-3 0  7075
2 21140   5.6057  70.0231 0001814 159.3921 257.8264  1.00271496 45946
NOAA 12                 
1 21263U 91032A   03039.93492340  .00000316  00000-0  15310-3 0  9621
2 21263  98.6247  29.7254 0013716  51.4274 308.8131 14.25073360609844
METEOR 3-5              
1 21655U 91056A   03037.97458875  .00000051  00000-0  10000-3 0  5295
2 21655  82.5536  47.0539 0012481 225.1454 134.8655 13.16979793551959
INSAT 2A                
1 22027U 92041A   03037.88111830 -.00000131  00000-0  10000-3 0  5459
2 22027   4.5819  78.1018 0003840 323.0235  37.0910  1.00226341 38561
INSAT 2B                
1 22724U 93048B   03039.45930431 -.00000349  00000-0  10000-3 0  3215
2 22724   2.0876  90.5681 0002087 256.2048  68.1938  1.00270799 35294
METEOR 2-21             
1 22782U 93055A   03040.35003427  .00000087  00000-0  65791-4 0  5133
2 22782  82.5460 222.2049 0022749  15.4720 344.7145 13.83531605476811
METEOSAT 6              
1 22912U 93073B   03038.03531830  .00000068  00000-0  00000+0 0  6692
2 22912   2.6492  82.4746 0001229 212.8276 223.7352  1.00279028 32181
GOES 8                  
1 23051U 94022A   03039.25634108 -.00000243  00000-0  00000+0 0  5975
2 23051   0.2724 103.4529 0001121 300.9443 110.7786  1.00280527 39704
ELEKTRO                 
1 23327U 94069A   03038.63963039 -.00000011  00000-0  10000-3 0  7342
2 23327   5.2471  74.8250 0004555 156.0407 204.0912  1.00258886 30331
NOAA 14                 
1 23455U 94089A   03039.98753302  .00000133  00000-0  95770-4 0  5165
2 23455  99.1872  58.3031 0008583 255.6024 104.4195 14.13293282418120
GMS 5                   
1 23522U 95011B   03038.62260777 -.00000280  00000-0  00000+0 0   880
2 23522   1.7497  83.8464 0000375  22.3751  34.9277  1.00260935 28785
GOES 9                  
1 23581U 95025A   03038.51389009  .00000137  00000-0  00000+0 0  5063
2 23581   0.2984 277.9200 0012483 254.1862   2.0839  1.00052947 28254
INSAT 2C                
1 23731U 95067B   03037.79004907  .00000000  00000-0  10000-3 0  8759
2 23731   0.7519 108.9884 0002212  51.4156 308.4610  1.00271960 26261
GOES 10                 
1 24786U 97019A   03036.66923413  .00000082  00000-0  00000+0 0  5343
2 24786   0.1055 108.1749 0003144 218.8964 275.0212  1.00287729 21200
FENGYUN 2A              
1 24834U 97029A   03038.73979775 -.00000179  00000-0  00000+0 0  9544
2 24834   2.5457  88.5742 0003066 269.5556 130.8933  1.00259270 20738
ORBVIEW 2 (SEASTAR)     
1 24883U 97037A   03040.55092988  .00000561  00000-0  12879-3 0   346
2 24883  98.2186 141.5842 0001033 191.6673 168.4502 14.59178309294037
METEOSAT 7              
1 24932U 97049B   03037.86607061  .00000002  00000-0  00000+0 0  2439
2 24932   0.1915  56.1799 0001242 238.8796 153.5168  1.00277358 19908
NOAA 15                 
1 25338U 98030A   03039.97365288  .00000176  00000-0  95014-4 0  9991
2 25338  98.5500  62.3831 0010568 350.3641   9.7334 14.24239734246439
RESURS O1-N4            
1 25394U 98043A   03039.86829694  .00000159  00000-0  88359-4 0  4430
2 25394  98.6345 117.9764 0002136 118.9520 241.1873 14.23874022238151
INSAT 2E                
1 25666U 99016A   03038.62860167 -.00000224  00000-0  10000-3 0  6271
2 25666   0.0211 192.3358 0109432 345.9482 269.6083  1.00274087 14239
FENGYUN 1C              
1 25730U 99025A   03037.95880861  .00000077  00000-0  65349-4 0  7881
2 25730  98.6348  62.7942 0015061  38.3413 321.8827 14.11733083192994
QUIKSCAT                
1 25789U 99034A   03037.92366886  .00000073  00000-0  48328-4 0  7376
2 25789  98.6335 225.1481 0000617 133.5767 226.5467 14.26578268189320
INSAT 3B                
1 26108U 00016B   03038.77013010 -.00000157  00000-0  10000-3 0  3887
2 26108   0.1038 108.7016 0006747 261.6885 127.1697  1.00268583 10573
GOES 11                 
1 26352U 00022A   03039.34491480 -.00000028  00000-0  10000-3 0   143
2 26352   0.1145 104.4092 0003582 219.5021 185.1104  1.00264035 10135
FENGYUN 2B              
1 26382U 00032A   03039.88564664 -.00000320  00000-0  00000+0 0  7890
2 26382   0.5820 287.6248 0001641 228.7011  45.2404  1.00281098  9612
NOAA 16                 
1 26536U 00055A   03040.51106371 -.00004370  00000-0 -23685-2 0  2011
2 26536  98.9008 348.8626 0010214 336.6914  23.3760 14.11892544122875
GOES 12                 
1 26871U 01031A   03038.59289693 -.00000140  00000-0  10000-3 0  8106
2 26871   0.3528 276.6744 0003201 358.7723 337.2121  1.00363477  5725
METEOR-3M               
1 27001U 01056A   03039.57511974  .00000138  00000-0  21472-3 0  1269
2 27001  99.5928 277.7445 0013562 277.6212  82.3392 13.68197991 58109
INSAT 3C                
1 27298U 02002A   03038.69691576 -.00000071  00000-0  00000+0 0  2132
2 27298   0.1025 109.8166 0001302 131.5658 220.8948  1.00271770  3836
FENGYUN 1D              
1 27431U 02024B   03037.95014636  .00000120  00000-0  93787-4 0  2570
2 27431  98.7710  87.2426 0015841 154.8996 205.2948 14.09178635 37735
NOAA 17                 
1 27453U 02032A   03039.93461765  .00000289  00000-0  14705-3 0  2974
2 27453  98.7599 111.1966 0012352  28.3357 331.8490 14.23287295 32596
MSG-1                   
1 27509U 02040B   03037.90990742 -.00000083  00000-0  00000+0 0  1119
2 27509   1.6955 302.6485 0001117 108.7247  42.1721  1.00272115  1713
METSAT 1                
1 27525U 02043A   03038.80345355 -.00000071  00000-0  00000+0 0   884
2 27525   0.1496 261.5592 0008215   2.5663 236.5718  1.00272137  1524



Read previous mail | Read next mail


 16.09.2025 05:49:28lGo back Go up